RH
89 84 74 65 70 86 94 92 89 86 82 81 81 83 79 67 66 71 72 75 76 74 74 77 78 71 66 68 68 71 74 74 78 83 87 87 85 85 85 85 86 85 84 83 80 81 81 77 74 72 71 72 72 72 72 71 70 71 71 74 76 77 79 79 80 84 83 79 80 78 74 78 78 81 89 81 76 87 93 91 93 93 89 85 84
89 81 70 62 64 82 93 90 89 89 88 88 88 92 92 88 81 74 70 74 77 76 77 83 87 79 75 79 81 81 82 81 86 90 91 92 91 90 89 88 86 84 84 83 79 77 79 79 75 72 71 71 70 71 74 75 74 73 72 75 77 76 75 77 81 86 86 82 81 82 78 79 80 81 90 84 72 82 94 92 92 92 88 86 87
90 81 74 72 76 87 92 88 89 90 89 91 92 93 96 97 91 82 74 70 75 76 72 74 78 78 84 90 90 91 93 93 93 92 90 91 89 88 89 91 90 88 88 88 83 75 71 73 75 74 74 74 73 71 71 74 75 75 75 75 77 78 74 72 76 81 84 83 82 85 84 83 89 91 91 86 75 78 91 95 94 92 89 89 90
86 84 83 88 92 93 92 89 90 92 90 91 93 93 95 95 89 86 81 73 77 81 76 74 73 76 81 83 86 91 94 95 92 90 88 84 84 86 89 93 94 93 94 91 86 79 71 67 69 70 71 74 77 75 73 72 73 75 76 76 77 78 74 70 72 78 81 84 85 86 88 88 93 90 83 84 79 77 89 95 94 91 88 88 90
80 88 91 97 99 96 95 95 95 96 96 95 96 97 97 95 87 84 85 83 85 88 87 84 81 82 84 85 88 90 90 92 93 94 92 87 88 91 91 94 97 95 91 81 73 77 79 72 67 65 66 70 75 76 75 73 72 74 75 75 77 78 77 74 74 78 80 83 85 85 89 91 88 83 82 87 85 81 92 97 92 91 88 86 89
84 93 95 97 98 97 97 99 99 99 98 97 99 98 97 96 93 91 92 92 93 94 95 95 94 95 96 95 96 94 93 93 93 95 94 93 95 95 93 94 95 88 82 77 72 77 86 85 78 70 67 68 70 72 74 75 74 71 68 69 73 77 82 84 78 76 77 81 83 81 83 84 81 84 89 93 93 89 92 96 94 92 91 90 91
92 96 96 97 99 99 99 100 100 99 97 97 98 99 98 97 97 98 97 97 99 99 99 100 100 99 99 99 99 98 97 95 93 91 89 91 94 95 94 94 91 82 77 81 82 84 90 93 89 81 76 73 72 73 73 75 76 73 71 68 70 77 88 92 83 75 73 75 80 83 84 85 83 85 88 88 93 93 91 95 96 94 94 94 93
98 97 97 98 99 100 100 100 100 99 98 97 97 98 98 97 97 99 99 99 100 99 100 100 100 100 99 99 101 99 97 96 96 92 90 91 93 95 96 96 92 85 83 87 89 91 92 92 87 79 78 79 78 79 77 79 83 83 84 82 79 84 92 94 86 78 74 70 76 84 87 90 90 85 86 86 84 85 88 94 97 96 97 96 93
99 99 98 100 100 100 100 100 100 100 99 98 98 99 99 98 98 99 99 100 100 100 100 100 100 100 100 100 100 98 96 94 92 92 93 93 93 95 97 97 94 88 88 91 93 95 93 91 88 81 81 84 84 84 83 87 92 90 92 91 85 85 90 93 90 84 78 73 75 84 87 92 94 89 91 93 84 80 82 85 90 94 98 97 93
98 101 99 101 100 100 100 100 100 99 98 97 96 96 97 96 96 96 96 96 97 98 97 96 97 98 97 95 95 95 93 91 91 92 92 90 89 89 91 94 94 91 92 94 94 94 93 92 92 90 90 92 93 92 87 85 88 92 94 91 87 88 89 89 87 84 85 85 82 84 87 91 97 97 95 94 86 80 80 79 82 87 89 91 92
100 101 100 101 100 100 100 100 100 99 97 95 95 97 98 97 95 95 95 93 93 93 92 92 93 95 93 93 95 96 95 95 97 98 96 92 88 87 90 94 93 92 93 94 92 92 93 93 93 95 96 96 97 96 94 90 89 92 91 89 91 93 91 87 83 83 90 96 90 84 86 89 92 94 90 83 77 77 78 79 80 83 85 88 90
101 100 100 100 100 101 100 100 100 98 96 95 96 98 98 96 95 94 94 92 90 90 91 92 94 94 94 95 97 96 96 98 99 99 97 94 90 88 89 90 88 88 89 89 89 89 89 90 91 96 97 97 96 94 94 94 93 93 90 92 95 92 91 92 92 93 93 96 93 84 86 91 91 92 88 80 74 72 73 75 77 82 87 91 90
100 100 101 100 100 100 99 100 100 97 96 96 97 98 96 94 94 94 93 92 91 89 87 89 92 93 93 94 91 88 89 94 97 96 92 91 91 90 88 88 88 88 87 83 80 78 79 83 86 92 96 95 94 92 89 85 86 90 89 92 94 89 89 94 97 97 89 85 86 85 90 94 91 91 88 78 74 74 73 74 75 80 85 88 90
100 100 100 99 101 100 99 99 99 98 96 97 97 97 97 96 94 95 95 94 92 90 86 87 91 93 92 90 84 80 82 90 95 93 92 92 93 92 92 93 91 87 83 75 69 67 70 75 79 86 93 95 93 93 92 88 88 91 90 90 92 91 91 92 95 97 91 85 87 89 91 90 86 86 82 77 77 78 76 72 73 81 87 89 93
99 98 98 98 99 98 98 97 96 96 95 97 98 98 100 99 97 97 97 96 94 92 90 88 87 84 79 75 73 76 84 93 95 92 94 96 95 94 92 91 88 80 73 67 63 65 68 71 77 86 95 98 96 93 88 85 86 90 93 93 93 94 94 90 91 95 97 95 92 88 86 84 82 83 82 80 80 78 76 71 72 82 91 94 97
98 96 95 96 97 96 97 96 95 96 96 99 100 99 100 100 100 99 98 98 95 91 87 82 78 74 68 64 64 71 80 88 91 91 96 98 95 92 88 84 80 73 68 65 64 69 74 78 85 92 97 98 97 89 79 76 77 80 88 95 96 97 95 90 91 96 99 100 96 90 88 86 82 82 81 79 77 75 75 76 80 84 86 91 98
97 95 94 94 95 94 96 97 96 98 99 100 100 99 101 100 100 99 95 95 90 82 81 77 71 67 61 57 57 61 70 80 87 92 96 96 92 87 84 80 76 72 68 65 66 71 75 82 90 93 94 95 92 84 76 76 75 75 86 97 99 98 93 88 90 94 95 97 97 92 91 90 85 82 79 73 72 76 80 84 87 85 80 82 90
95 96 95 94 95 94 95 96 96 98 99 99 99 100 101 99 97 96 96 97 89 80 82 80 69 60 54 53 55 60 70 80 87 92 94 94 91 87 84 79 75 74 68 64 69 72 71 76 84 88 89 89 87 82 82 83 78 77 86 95 97 97 94 87 86 91 94 95 96 96 94 92 88 83 78 72 71 78 88 91 89 85 81 80 80
93 94 94 94 95 94 93 94 95 97 98 99 100 99 98 98 97 98 99 100 93 86 87 79 66 59 58 62 68 73 81 88 92 95 96 97 96 91 84 78 77 75 68 66 70 71 70 71 76 83 83 80 81 82 85 88 84 83 88 93 96 97 97 94 91 93 96 95 97 98 95 91 92 90 80 75 76 83 92 94 90 87 84 81 78
91 92 91 91 92 91 91 93 94 96 96 96 96 95 95 96 97 97 96 94 93 90 85 74 69 71 73 77 84 88 91 93 94 97 98 98 97 91 83 79 80 76 69 70 70 68 69 69 73 80 78 77 83 84 85 91 93 92 92 93 97 96 96 98 97 95 95 95 95 95 92 91 95 90 77 74 82 88 94 97 95 93 87 81 79
90 89 89 89 90 89 90 92 93 93 93 94 94 93 92 93 94 94 93 91 91 90 83 80 83 88 89 91 93 93 93 93 93 95 99 97 94 90 84 82 82 77 72 72 70 70 72 70 74 80 76 77 85 85 86 92 93 90 89 94 98 97 97 96 93 92 89 84 80 78 82 89 94 91 83 84 91 93 95 99 96 90 85 81 80
89 88 88 87 87 88 88 89 90 90 91 92 93 91 90 93 94 94 95 95 95 92 89 91 95 96 96 98 97 94 93 91 87 88 94 95 95 92 87 84 82 81 81 78 73 74 75 75 80 84 81 82 84 82 82 85 83 79 81 88 87 83 86 85 84 87 82 77 78 74 71 77 88 96 96 96 97 97 96 95 92 87 83 81 77
88 86 86 84 84 86 86 87 88 88 90 91 90 89 90 92 93 93 96 97 98 97 95 96 98 97 96 96 95 93 93 89 83 85 89 90 94 94 89 85 85 87 90 85 79 78 79 80 82 80 81 81 78 77 79 79 78 78 83 90 86 76 78 78 75 75 72 72 79 80 78 83 90 96 99 97 96 96 91 88 90 89 82 79 78
85 83 82 82 83 83 84 87 88 88 89 89 89 89 90 92 93 93 96 97 96 97 98 98 97 94 89 88 89 90 92 91 86 85 85 85 91 93 89 88 89 93 95 89 85 85 85 83 79 76 79 77 68 68 74 76 76 80 87 94 93 88 89 88 83 79 77 76 74 71 75 84 88 88 91 93 93 91 87 86 89 89 81 77 81
82 81 81 81 82 82 83 85 86 86 87 87 87 88 89 91 92 92 94 97 97 97 97 95 89 82 77 77 82 86 90 90 85 81 82 85 90 92 90 90 92 97 98 94 90 89 88 86 82 82 84 80 72 70 73 76 77 80 85 89 91 92 92 92 94 95 95 94 87 77 73 79 86 88 89 89 88 85 85 89 92 92 85 79 82
81 81 81 82 83 83 82 83 84 84 85 86 86 86 87 89 89 92 95 96 97 95 91 84 78 76 74 75 81 88 91 90 84 82 84 86 90 93 93 94 96 99 100 98 94 89 87 87 88 90 88 84 83 82 80 83 84 83 85 89 94 94 90 88 90 92 95 95 90 85 84 88 90 89 88 88 87 80 78 86 94 92 85 82 87
82 82 82 83 82 80 80 81 80 80 82 83 82 82 84 85 87 90 91 91 91 86 80 78 80 84 86 85 89 95 97 94 87 83 82 82 87 94 98 98 99 100 100 100 98 94 91 90 91 94 95 92 91 89 88 90 88 84 86 90 92 91 90 89 84 82 87 90 86 83 87 90 84 80 85 91 91 80 73 82 90 89 85 84 86
82 82 82 81 79 77 78 78 76 78 80 77 76 79 81 83 84 82 82 84 82 76 77 85 91 94 95 96 99 99 96 90 82 77 74 75 84 95 100 100 100 100 100 100 100 99 97 96 96 97 99 98 94 90 90 92 90 88 87 88 89 90 90 91 89 87 88 88 87 85 89 93 88 86 91 94 93 86 79 83 88 84 82 83 82
84 83 82 78 76 76 76 75 74 76 76 73 74 78 80 83 83 79 79 81 76 73 83 95 97 97 99 100 100 96 89 83 78 76 77 82 91 98 100 100 100 100 101 100 100 100 100 100 100 99 99 98 95 91 90 89 89 88 85 82 84 86 85 86 89 94 95 92 91 91 94 98 94 92 91 89 90 89 83 84 88 85 81 83 83
86 82 78 74 73 73 72 72 73 72 72 72 74 75 78 83 84 79 78 78 72 72 87 97 97 99 101 100 97 91 86 85 85 86 88 92 97 98 97 99 100 100 100 100 100 100 99 98 96 94 93 93 92 91 91 90 89 88 85 81 81 81 81 81 83 87 89 90 89 86 86 90 89 89 88 85 89 90 81 81 88 87 83 84 85
83 78 74 72 71 70 69 71 70 69 70 73 72 72 76 82 82 79 77 74 70 74 88 97 99 99 100 98 91 85 87 92 94 95 96 96 96 93 91 94 98 100 101 100 98 95 93 94 95 93 91 90 89 88 89 88 87 87 84 80 78 78 77 76 76 79 81 82 84 81 79 82 83 84 85 86 87 85 81 83 88 85 79 77 81
79 76 72 71 69 66 67 68 67 67 69 69 70 73 78 81 80 78 74 69 69 78 90 97 99 100 100 97 89 85 91 98 98 97 96 93 91 87 84 84 88 92 94 92 87 82 81 84 90 94 92 90 87 85 83 82 81 81 80 78 78 77 76 74 75 77 77 79 84 82 77 79 81 81 85 91 91 85 84 89 87 80 74 72 78
77 74 69 67 65 63 64 64 64 67 68 67 70 75 80 80 78 76 71 66 70 83 94 99 100 100 98 94 88 87 95 100 99 94 88 85 84 82 80 78 77 78 78 77 75 74 74 75 81 89 92 89 86 84 82 79 78 78 76 75 74 73 74 75 75 77 79 82 87 82 76 80 86 86 87 89 89 85 85 89 86 80 80 83 89
76 71 67 64 62 62 63 63 64 67 67 68 72 77 80 79 77 74 68 66 75 89 97 99 100 99 94 88 85 88 96 100 100 92 83 81 83 84 83 81 78 76 74 75 76 76 76 77 82 88 89 86 86 86 82 78 76 75 72 70 69 68 69 71 75 80 82 81 81 78 75 80 85 87 85 78 77 84 90 92 90 88 89 92 95
76 71 67 64 62 63 63 63 66 67 67 70 74 77 79 79 76 70 68 72 83 94 99 99 99 98 95 89 86 88 94 98 99 94 86 83 83 84 84 81 78 78 79 81 83 80 76 76 78 81 80 81 85 87 84 79 76 73 66 62 63 62 62 65 74 81 83 83 84 84 82 80 78 81 83 76 76 89 97 94 91 91 92 92 91
78 73 68 65 64 63 62 64 67 68 68 72 76 77 78 79 74 68 71 81 90 96 99 98 97 98 99 97 93 91 91 91 91 88 85 85 85 85 87 85 80 79 80 82 84 85 82 76 72 71 70 72 79 84 83 83 82 76 66 59 57 55 52 56 65 72 78 85 93 97 94 88 82 84 91 91 88 92 93 91 90 92 92 89 87
79 75 70 67 66 65 65 68 69 69 71 74 76 77 76 76 74 74 80 88 92 95 97 96 97 98 99 100 97 94 92 90 87 86 86 89 89 90 93 90 83 81 81 82 86 91 92 86 78 75 72 70 76 82 83 82 82 81 75 69 68 65 60 61 66 72 75 77 82 90 94 95 95 96 98 99 97 91 86 87 91 93 94 95 93
76 71 70 69 68 68 70 72 71 72 75 76 76 76 75 76 80 84 89 90 90 93 94 94 96 97 96 95 93 91 91 90 89 89 90 92 93 94 95 91 86 85 85 86 88 89 92 93 91 89 87 84 84 87 86 82 82 83 83 85 86 84 81 79 79 81 80 75 74 77 80 85 93 98 100 101 99 92 82 79 83 85 85 87 91
70 68 70 70 71 71 73 73 72 75 78 77 76 76 76 80 87 89 87 87 88 90 89 89 90 89 87 86 85 85 86 86 87 88 88 89 89 88 89 88 86 86 86 87 87 83 85 93 98 99 97 95 94 94 92 89 87 87 87 90 91 90 91 92 91 89 87 83 82 80 76 78 83 89 93 95 94 93 90 85 82 77 68 70 82
65 67 68 67 69 71 72 73 74 77 79 77 77 79 80 82 85 82 77 76 78 79 79 79 79 78 77 77 76 77 79 79 81 82 81 81 80 79 79 78 78 79 79 81 83 84 86 93 99 100 98 95 93 91 90 88 87 86 87 87 86 88 93 94 94 93 91 88 87 84 82 82 81 79 80 80 81 87 93 93 90 82 75 77 87
60 61 61 63 66 68 69 72 75 78 79 78 79 81 83 84 84 80 74 67 64 64 64 63 62 60 59 61 63 65 67 69 70 71 70 69 67 65 64 64 63 64 65 65 68 74 82 88 92 92 89 86 84 82 81 82 81 80 81 81 82 89 97 97 93 93 91 88 87 86 87 89 87 83 81 82 84 89 93 92 91 91 91 90 86
57 57 58 59 62 65 68 71 75 78 79 78 79 82 86 87 84 79 74 66 57 54 52 50 50 46 38 34 36 39 43 48 51 55 57 57 56 54 51 50 50 50 50 48 46 49 56 61 64 64 63 62 61 63 67 72 76 77 78 79 81 88 95 95 93 93 94 93 91 90 92 96 96 94 93 91 92 95 94 93 94 96 99 99 92
58 57 57 57 59 62 66 69 74 79 79 77 78 82 85 85 81 75 70 60 46 37 35 37 40 38 28 20 19 20 21 24 27 31 35 38 40 40 38 39 41 43 43 42 40 39 40 40 41 42 42 43 43 46 49 55 61 65 66 68 72 76 82 86 88 90 92 92 91 90 90 92 93 95 98 99 99 98 96 97 100 99 99 101 98
59 58 57 57 58 59 61 64 68 72 73 71 71 74 76 78 77 72 66 55 39 25 21 24 27 26 22 20 21 21 19 19 19 19 19 21 22 22 22 24 27 30 32 34 36 37 38 39 40 40 41 42 42 42 43 45 49 51 51 54 56 57 62 69 76 83 86 87 87 87 85 84 84 84 87 90 92 93 93 95 97 98 98 98 96
60 61 60 58 58 58 58 59 59 59 59 58 57 58 60 62 62 56 50 44 35 23 20 22 25 27 28 28 28 27 25 23 22 21 20 20 19 18 18 19 19 20 21 23 26 29 31 35 39 41 43 44 43 42 42 43 43 44 45 48 48 49 51 55 58 65 71 76 80 84 86 86 85 84 84 83 83 84 86 87 88 90 91 90 88
63 64 63 60 59 60 60 61 60 58 57 56 53 53 53 54 53 50 46 42 37 33 34 37 40 44 47 45 43 41 37 31 28 28 29 28 26 23 20 19 19 19 20 21 23 25 27 30 34 39 42 43 42 42 43 44 44 45 45 46 47 50 54 56 57 58 59 63 68 72 78 82 83 84 85 85 85 85 84 84 84 84 86 85 84
65 65 65 63 63 63 62 62 62 62 61 61 60 59 57 54 52 52 52 51 49 49 50 51 52 56 58 57 57 57 53 46 39 38 40 41 37 32 26 24 23 21 21 22 23 25 27 29 33 39 41 40 42 44 46 48 49 50 50 50 50 52 54 59 67 74 76 76 76 74 74 76 79 82 83 84 88 90 88 86 84 82 84 84 83
66 66 66 65 64 63 62 61 61 61 61 60 61 62 61 59 57 56 55 55 56 58 57 56 57 59 59 60 62 63 62 59 52 48 51 55 54 48 42 39 35 31 28 28 27 27 30 32 36 41 45 46 49 52 55 58 59 59 60 62 64 66 65 67 78 89 92 92 91 90 87 86 87 87 85 84 87 90 90 88 84 81 82 83 80
67 67 66 65 64 63 62 61 60 59 58 57 57 57 56 57 60 62 62 61 59 57 56 57 58 58 58 59 60 61 64 65 61 58 59 63 64 62 58 55 50 44 40 39 36 35 36 37 37 42 50 57 62 65 66 69 70 70 73 75 78 81 81 81 86 91 90 87 88 90 93 96 98 96 92 91 93 94 92 89 86 83 83 83 80
68 67 67 67 66 64 63 62 62 61 61 61 60 58 55 54 54 54 56 59 59 57 56 57 57 57 57 57 58 60 63 65 65 63 63 65 67 67 66 64 59 52 48 48 48 45 44 43 43 50 61 69 73 73 73 74 75 74 74 77 80 82 82 83 85 85 83 82 84 86 91 97 99 99 99 99 99 99 98 97 95 93 90 86 82
69 68 68 67 65 64 63 62 63 63 63 62 62 60 59 57 54 50 49 52 54 56 56 56 56 56 56 56 58 60 62 63 65 65 64 64 66 69 71 69 64 57 54 55 57 57 54 51 53 62 73 77 76 75 73 72 72 72 70 71 74 75 76 80 83 83 83 85 86 87 91 95 94 94 98 100 99 99 99 99 99 98 96 91 86
Wind_Speed
20 18 17 15 14 13 14 14 13 13 13 13 13 11 9 11 12 12 11 10 10 10 9 10 10 11 12 12 13 12 11 11 10 10 11 11 10 10 12 12 13 14 13 13 13 13 14 15 16 17 18 20 22 24 25 24 24 24 24 24 25 26 27 27 27 27 26 26 25 24 23 24 25 22 18 19 19 17 17 15 13 13 12 12 11
20 19 17 15 14 14 14 13 12 13 13 12 13 12 10 9 10 10 9 10 11 10 10 12 13 13 12 13 13 13 10 8 9 9 10 11 11 11 11 12 13 13 12 12 12 12 14 15 15 16 17 18 20 21 23 24 25 25 25 25 25 26 27 27 27 27 26 27 26 24 23 23 24 24 21 20 19 18 17 16 15 13 13 13 13
21 20 19 16 15 15 15 14 13 12 12 11 12 13 11 10 8 8 7 8 9 9 9 10 11 12 13 13 14 13 12 9 8 9 11 12 12 13 13 13 13 13 12 12 13 13 13 14 15 16 18 19 19 20 22 24 26 26 26 26 25 25 26 27 27 27 26 26 26 24 21 20 21 23 23 20 20 20 18 17 16 14 14 14 14
23 21 20 17 17 16 15 14 13 13 12 11 11 11 10 9 6 7 7 6 6 6 6 5 5 7 9 9 10 11 12 11 8 7 10 12 13 14 15 14 14 14 12 12 14 15 15 16 16 17 18 19 20 21 22 24 26 27 27 27 26 26 26 26 25 26 26 26 24 22 19 17 19 22 23 22 20 20 19 18 16 15 15 15 15
24 22 20 18 17 16 15 14 13 13 13 12 11 10 9 7 4 5 5 4 3 4 4 3 3 3 3 2 3 4 6 6 5 5 7 9 12 14 15 14 13 14 13 12 15 17 18 19 18 18 18 19 20 21 22 24 25 26 26 27 28 29 28 26 24 24 25 26 25 22 17 16 19 22 21 20 20 21 20 18 17 17 17 16 15
23 20 19 17 16 15 14 14 15 15 15 14 13 11 9 6 5 4 3 2 1 1 1 1 1 1 1 1 1 1 0 1 4 7 9 10 12 14 17 15 12 14 16 15 17 19 19 20 20 20 20 20 21 22 22 24 26 26 26 27 28 29 30 29 27 25 24 24 26 26 22 19 19 20 18 17 18 21 21 19 19 19 18 18 17
21 18 16 15 15 15 14 15 16 16 16 16 14 12 10 8 7 6 3 2 1 1 2 3 3 2 2 3 3 3 2 2 4 7 9 11 13 14 17 18 13 15 18 19 19 19 19 20 21 21 22 23 23 23 24 25 26 27 26 27 27 28 31 32 30 28 26 25 25 27 27 24 21 19 18 17 18 20 22 20 20 21 20 20 18
18 16 15 15 14 15 15 15 15 15 14 14 13 12 10 9 9 8 7 5 3 3 4 4 4 5 5 5 5 5 5 6 7 9 10 12 13 13 16 19 17 16 19 20 21 20 20 21 21 21 23 23 23 24 26 26 27 28 29 29 27 29 32 32 31 30 29 27 25 26 28 28 25 22 19 18 17 18 22 23 22 22 22 22 20
17 17 17 16 15 14 15 14 12 11 11 11 11 10 10 10 8 7 5 5 4 4 5 5 6 7 7 7 7 7 7 8 9 11 12 13 14 14 15 17 18 18 18 20 21 21 22 23 22 22 23 23 24 25 25 27 29 30 30 29 29 30 31 29 29 30 29 27 26 26 28 29 27 22 20 19 17 15 18 22 23 23 23 23 21
17 17 18 17 16 14 13 11 9 8 8 7 7 6 6 5 3 2 1 2 2 3 5 6 6 7 7 7 7 7 8 9 10 10 10 10 11 12 12 14 17 18 19 20 21 21 22 23 25 25 25 25 26 25 25 26 28 30 31 31 30 30 30 28 28 28 28 28 27 26 27 29 27 23 22 21 18 16 16 18 21 23 23 24 23
17 17 16 15 15 13 11 10 8 7 6 4 4 5 6 5 4 2 2 3 3 4 5 4 4 4 4 5 5 6 7 9 10 11 11 12 12 13 14 15 16 18 19 21 22 23 23 23 25 26 27 28 28 27 27 28 29 31 32 31 29 28 28 29 29 29 29 28 27 26 27 29 29 29 27 23 20 18 17 16 17 19 20 22 22
18 16 14 13 13 11 10 9 8 7 6 4 4 5 7 6 4 4 5 5 6 7 6 5 4 5 4 3 3 4 5 7 9 11 12 13 13 14 15 16 17 18 20 22 24 25 26 25 26 26 27 30 29 26 27 30 31 32 31 28 26 26 28 29 30 30 29 27 27 27 26 27 30 32 28 23 20 19 17 16 15 15 16 18 19
21 18 16 14 12 11 10 9 8 7 7 6 6 7 8 8 6 5 5 5 7 8 8 7 6 6 5 5 5 5 7 8 8 9 10 11 13 15 16 17 19 21 22 24 24 26 27 27 28 28 28 29 28 26 26 27 28 28 27 26 26 27 28 30 31 31 28 27 26 26 25 25 27 27 24 22 21 20 19 18 15 15 16 16 18
21 20 18 15 12 11 9 8 7 6 7 7 8 8 9 10 8 5 4 4 6 8 7 7 6 6 6 6 6 6 8 8 8 9 10 11 13 16 18 20 21 23 24 25 26 26 26 26 28 29 28 27 26 26 26 26 25 25 24 25 25 26 26 27 29 30 29 28 27 25 25 25 24 23 22 22 23 23 23 22 18 17 17 17 18
20 19 17 14 11 10 9 7 5 5 6 7 8 9 9 11 10 7 5 4 5 6 7 7 7 7 7 7 7 8 9 9 9 9 10 12 15 17 18 20 22 24 25 26 27 27 27 26 26 26 24 24 24 22 22 23 23 22 22 22 23 23 24 24 25 27 29 29 28 26 25 24 23 23 22 22 23 23 23 22 21 20 19 18 19
21 19 16 14 11 9 8 7 5 4 4 5 6 7 7 7 8 7 5 5 5 7 8 8 8 8 8 9 9 9 9 10 9 9 11 13 15 17 18 19 22 24 25 25 25 25 25 24 23 22 19 20 21 20 20 20 19 20 21 22 23 22 23 24 23 25 29 29 29 28 26 24 23 23 22 21 21 21 21 21 21 21 20 20 20
22 20 17 14 11 9 8 7 6 5 4 3 4 4 5 6 5 2 2 4 6 7 7 8 8 8 9 10 9 9 9 9 9 10 11 13 15 17 18 20 22 24 23 23 24 23 23 22 19 17 15 15 17 19 20 18 17 18 19 21 22 23 24 24 25 27 28 28 29 29 27 25 23 22 22 21 20 20 21 21 21 20 19 20 22
23 20 19 15 12 10 8 7 6 6 4 3 3 3 3 2 2 3 5 6 7 7 7 8 9 8 9 10 11 11 10 10 9 10 11 13 15 16 18 20 22 23 23 23 23 23 22 21 18 14 13 13 15 17 18 16 15 15 16 18 21 22 24 25 26 27 27 25 26 27 25 24 24 24 23 21 21 21 22 22 20 17 17 19 21
20 18 17 15 13 11 8 7 7 6 5 4 3 2 1 5 7 7 6 6 8 8 7 8 9 9 10 11 12 12 11 10 10 11 12 13 15 17 18 19 21 22 22 22 22 21 21 20 17 13 12 13 14 15 15 14 13 12 14 17 19 20 24 28 28 26 25 23 23 24 24 23 24 25 23 21 21 22 23 22 19 17 16 17 19
16 15 13 12 11 9 8 6 6 4 3 2 1 3 6 9 9 7 6 6 7 7 6 8 9 10 12 12 11 11 10 11 11 12 13 13 15 16 18 19 20 21 21 21 21 20 20 20 16 13 13 13 12 11 10 10 9 9 11 14 16 17 20 23 25 21 16 15 16 18 20 21 23 23 21 21 22 22 22 20 18 17 16 16 17
15 14 11 9 9 8 6 5 5 5 5 5 6 9 11 11 10 9 8 8 8 8 8 9 11 12 12 12 11 10 11 11 12 12 13 13 14 16 17 18 19 19 20 20 20 19 20 20 17 15 15 12 9 8 7 6 4 5 8 10 10 10 7 5 12 14 11 11 11 12 14 17 20 21 21 22 22 21 21 20 18 16 15 16 17
16 15 13 11 10 8 6 6 8 8 8 6 7 11 14 13 9 7 9 10 11 12 11 12 13 13 11 10 10 11 12 11 11 12 12 12 13 15 17 18 17 18 18 19 19 18 18 18 17 16 16 14 10 9 9 8 6 5 5 4 4 3 4 5 5 8 9 10 11 12 11 15 17 17 19 21 20 18 19 19 18 16 15 17 19
16 15 14 12 11 9 8 9 10 9 8 8 10 12 13 11 8 7 10 13 15 16 15 14 13 12 10 8 8 10 11 11 11 12 12 12 13 13 15 16 17 17 17 17 17 17 16 16 15 14 13 12 11 10 10 9 7 7 5 2 2 2 1 2 4 6 5 5 7 9 11 16 17 16 18 19 18 17 17 18 19 17 16 17 18
16 15 14 13 13 11 11 11 9 8 9 11 13 14 13 12 11 12 15 17 18 17 16 14 13 12 11 9 9 9 10 10 11 12 13 13 13 13 13 15 16 16 15 15 16 15 14 14 14 13 11 10 9 8 8 7 7 7 5 3 3 3 3 4 4 5 5 6 7 9 12 15 15 15 17 16 15 16 16 18 19 18 16 16 16
15 14 14 13 13 12 11 11 10 11 12 13 14 14 14 14 15 17 19 18 15 13 13 13 13 13 13 12 12 11 11 12 13 14 14 14 14 14 14 13 13 13 13 13 15 14 14 14 13 12 11 10 8 7 7 7 7 7 5 3 4 4 4 5 4 3 5 8 10 11 12 13 13 14 15 12 12 14 16 17 18 16 14 15 17
15 15 13 12 13 12 12 12 12 13 13 14 14 14 13 14 17 18 17 14 11 9 10 12 13 14 15 15 15 14 14 14 15 16 15 14 13 13 13 12 10 10 12 13 14 15 14 14 12 10 10 10 8 8 8 7 7 7 6 4 4 5 5 3 3 2 4 5 4 6 9 10 10 11 11 10 9 11 14 16 16 14 14 16 19
15 15 14 13 14 14 15 14 13 14 15 15 15 15 15 16 17 15 12 10 9 10 11 13 15 17 18 17 17 16 15 15 16 16 15 14 13 12 12 11 10 9 10 13 14 15 15 13 11 10 9 8 8 8 9 9 7 7 6 5 5 6 6 4 3 1 2 3 3 5 7 7 7 6 8 10 9 10 13 15 14 14 15 17 19
14 14 15 15 14 14 15 14 13 15 17 17 17 17 18 17 15 12 11 12 13 14 15 18 19 18 18 17 16 15 16 16 16 16 15 15 14 12 11 11 11 11 11 13 13 13 14 13 11 11 10 8 9 10 10 11 9 7 6 5 6 7 8 7 5 3 2 2 3 5 6 7 7 6 7 8 8 10 12 13 13 14 15 16 16
15 15 15 15 14 15 16 15 15 16 16 17 18 18 17 16 14 13 13 13 15 15 17 19 19 18 17 17 16 16 17 18 17 17 17 17 16 14 12 11 12 12 12 12 11 11 12 12 12 12 10 9 11 12 11 12 11 10 8 6 7 8 10 9 6 5 5 4 3 4 5 6 4 3 5 7 7 9 11 11 12 12 13 14 14
16 16 16 16 16 15 16 16 16 16 16 17 18 17 15 14 12 12 12 13 14 14 16 18 18 17 16 16 17 18 19 20 21 21 21 21 20 17 15 14 14 14 13 13 13 12 13 14 14 14 12 11 12 13 13 13 13 13 11 9 9 10 11 9 7 7 7 6 5 4 3 4 3 4 6 7 7 8 9 9 9 10 12 14 14
18 18 18 17 17 16 16 16 15 16 16 16 16 14 13 13 11 11 12 12 12 11 16 18 17 17 16 17 17 19 20 22 23 24 24 23 22 21 21 21 20 19 18 17 17 16 17 17 16 15 14 14 14 15 15 14 13 14 13 11 11 11 12 12 10 9 10 7 4 3 2 2 3 4 5 6 7 7 7 6 7 9 12 13 14
19 17 16 16 16 16 16 17 16 16 14 14 15 14 13 12 11 11 12 11 9 12 16 17 17 16 16 17 18 19 21 22 23 24 24 23 22 22 23 24 23 23 21 20 20 19 19 19 18 17 17 17 18 17 17 16 15 15 15 14 14 15 16 16 14 11 10 7 4 4 3 1 3 4 5 6 6 6 7 7 7 9 11 12 13
18 16 16 18 17 15 16 18 17 16 15 14 16 15 13 12 11 11 11 10 10 15 17 18 18 16 16 18 18 19 21 21 22 23 23 22 22 21 22 23 22 21 20 20 20 20 20 20 19 17 16 18 19 19 18 17 17 17 16 16 17 19 20 20 18 13 10 7 5 6 5 1 2 2 3 4 4 4 6 8 8 9 11 12 14
18 17 17 18 17 16 17 19 17 17 17 17 17 15 13 12 10 9 9 10 13 17 19 20 19 18 18 18 18 19 20 20 20 21 21 21 21 21 21 21 21 21 21 21 21 20 20 20 19 17 16 17 19 19 18 17 16 17 17 17 18 19 21 22 19 14 11 10 7 7 7 4 2 3 3 5 5 4 6 9 10 11 12 12 14
20 20 17 15 17 19 20 18 16 17 18 18 17 15 12 11 9 9 11 14 17 18 18 19 20 21 21 20 19 20 20 20 19 20 20 20 21 21 21 21 21 22 22 22 21 20 19 19 20 19 18 19 20 20 18 17 16 14 14 16 17 17 19 20 19 15 12 10 7 6 6 5 3 4 3 6 7 6 7 8 9 12 12 12 13
21 21 19 15 18 21 19 16 16 17 15 16 17 14 11 10 11 13 16 18 20 20 19 19 21 23 22 22 22 22 22 21 20 19 19 19 19 20 21 20 20 21 22 21 21 20 19 19 19 18 19 20 21 20 19 19 17 13 11 11 12 13 13 14 15 15 13 10 7 6 5 3 3 5 6 7 7 7 7 7 9 12 12 12 12
21 20 18 17 19 20 16 16 19 18 14 14 14 11 10 11 13 16 20 22 23 24 22 22 23 23 22 22 23 23 24 23 22 21 21 21 21 21 21 21 20 21 22 22 22 21 21 20 19 18 19 19 20 21 20 20 20 17 14 13 13 12 11 11 12 13 13 11 9 10 11 10 9 8 7 7 8 7 7 8 10 13 13 12 13
20 20 18 19 20 18 16 19 21 18 15 13 10 8 9 12 17 21 22 22 23 24 23 23 22 21 20 21 21 21 22 22 23 24 23 23 23 23 22 22 21 22 22 22 22 22 22 23 23 22 21 20 20 21 20 20 20 19 18 17 16 15 15 14 13 13 13 11 9 9 10 10 12 13 10 8 7 6 7 8 9 11 12 11 11
20 20 20 19 19 18 17 20 20 18 15 12 10 9 12 15 20 22 22 23 23 23 23 23 22 21 20 20 20 20 21 21 22 23 23 23 23 23 22 22 21 21 21 21 20 19 21 24 25 25 25 24 24 23 22 21 20 19 17 17 16 17 17 15 13 12 12 11 10 8 7 6 8 9 9 8 7 5 4 5 5 5 6 6 5
21 20 20 20 19 17 18 19 19 18 14 12 11 13 16 18 20 22 23 24 24 23 23 23 22 22 22 21 21 21 21 21 21 21 21 22 22 22 22 22 22 23 22 22 21 20 21 23 24 25 25 26 26 25 24 23 22 20 19 17 16 18 18 15 12 11 10 10 10 10 9 8 6 6 5 5 6 6 6 7 7 7 7 6 2
22 21 21 21 19 18 18 20 19 18 15 14 15 17 19 19 19 21 22 22 22 22 22 22 22 22 22 21 21 21 21 21 20 19 20 20 21 22 22 23 23 24 24 25 25 24 23 24 24 24 25 25 25 25 24 23 22 21 21 20 19 21 21 17 12 11 10 10 11 10 11 10 8 6 6 6 5 4 4 5 6 7 8 7 1
22 22 22 22 20 19 20 20 19 19 18 17 18 21 22 20 20 20 19 18 18 19 19 20 21 22 22 22 22 21 21 21 20 19 20 20 20 21 23 23 23 23 24 25 26 26 26 26 25 26 26 26 26 26 25 24 23 22 22 22 21 22 21 17 15 14 14 13 13 12 12 11 9 7 7 6 5 4 3 4 5 5 6 5 2
22 22 21 21 21 20 20 19 19 19 18 16 17 20 21 20 20 20 18 18 19 19 19 20 20 20 22 23 23 22 22 22 21 20 20 21 21 21 22 22 22 22 23 24 25 25 26 26 27 27 27 27 27 27 27 27 26 26 25 25 24 23 22 20 18 19 19 18 17 16 14 12 10 8 7 6 5 4 3 4 4 3 2 2 2
22 21 20 20 19 19 19 18 18 17 16 15 16 19 20 19 18 17 16 18 20 20 22 23 23 23 24 24 24 24 23 23 22 21 21 22 21 21 22 22 22 22 22 23 24 24 24 25 26 26 26 26 26 26 26 26 26 27 27 27 27 26 25 23 22 22 21 20 18 17 16 14 13 12 11 9 7 7 6 5 4 3 3 4 5
22 21 20 19 20 20 20 20 19 18 17 16 17 19 20 20 18 17 17 18 20 22 24 25 26 26 26 25 25 25 25 25 24 24 24 24 23 22 23 23 23 22 23 23 23 23 23 24 24 24 24 24 24 24 25 25 25 25 25 25 25 26 26 25 24 23 22 21 20 18 16 14 13 13 12 11 10 10 8 6 5 5 6 7 8
22 21 20 20 21 21 21 22 20 19 19 19 18 19 20 20 19 20 20 20 21 22 24 25 26 26 25 25 26 26 26 26 26 26 27 27 26 25 25 25 25 24 24 24 24 24 23 23 23 23 22 22 22 23 23 24 23 23 23 23 23 23 23 23 23 23 23 22 21 20 19 18 16 15 15 14 14 14 12 10 8 6 4 4 6
23 22 21 22 22 22 21 21 21 19 19 19 19 19 20 20 20 20 20 20 20 21 21 21 22 22 23 24 25 26 26 26 27 27 28 29 29 28 27 27 27 26 25 25 24 24 23 22 22 22 22 22 22 23 23 24 23 23 23 22 22 21 21 20 21 22 21 20 20 20 20 20 19 19 19 19 18 18 18 17 16 15 12 10 7
24 23 23 23 23 23 22 21 21 19 18 18 18 18 19 21 21 20 20 20 20 20 19 18 18 18 20 21 23 24 25 26 26 27 29 30 30 30 30 31 30 29 28 27 25 24 24 22 22 22 22 23 24 25 25 26 25 24 23 22 22 22 22 21 22 21 19 16 15 15 16 17 17 17 18 18 17 17 17 17 17 17 17 16 15
24 24 24 24 24 23 22 21 20 18 18 18 18 18 19 20 20 19 18 19 20 20 19 18 17 17 18 19 21 22 23 24 25 26 28 29 29 30 32 33 32 30 30 30 29 28 26 24 22 23 23 25 26 26 25 25 24 24 23 22 23 23 23 22 21 19 16 14 14 15 16 16 16 16 17 17 16 15 14 14 14 14 14 14 15
25 25 24 23 23 23 22 21 20 19 19 19 18 18 17 17 17 16 17 18 20 20 20 19 18 18 18 18 19 20 21 22 23 24 25 25 25 26 28 31 31 30 30 31 31 32 30 27 24 23 24 25 26 25 22 21 21 21 20 20 20 20 20 20 19 18 17 17 18 19 18 17 17 16 16 16 15 15 14 13 12 12 13 13 12
26 25 24 24 23 23 22 21 20 19 20 20 19 18 17 17 16 16 17 19 20 21 21 20 19 19 18 18 19 20 20 21 21 22 22 22 22 22 24 27 29 28 28 29 31 33 33 30 27 24 23 24 25 24 22 21 20 20 20 20 19 18 18 17 16 16 16 19 20 20 20 19 18 17 16 16 15 14 13 13 12 12 13 12 10
Wind_Direction
142 139 137 140 141 146 143 136 134 130 129 134 133 133 131 136 153 166 170 177 187 196 205 208 213 219 219 219 218 221 229 236 249 261 267 268 266 267 268 265 263 264 266 267 265 261 259 255 251 252 251 248 248 247 244 243 243 242 244 246 244 241 239 240 239 237 238 240 245 246 247 250 243 238 238 235 236 224 212 218 221 222 231 238 243
144 140 140 149 152 154 149 140 138 135 134 136 134 138 142 139 147 161 166 174 187 198 205 206 211 216 219 222 221 223 229 243 262 270 275 276 273 272 274 272 268 266 265 269 273 270 265 260 256 255 256 257 256 250 245 243 242 241 242 244 244 242 239 238 238 238 239 240 244 248 249 250 245 238 230 227 235 229 214 217 221 222 229 237 242
146 145 148 154 154 156 152 145 144 140 139 143 143 147 154 155 156 156 159 172 186 199 206 206 207 207 211 219 220 219 220 227 247 262 269 273 276 277 278 278 276 276 277 277 281 281 276 270 264 261 260 260 259 255 249 244 243 243 242 243 242 242 239 236 236 237 239 240 242 245 246 246 240 230 224 224 232 230 218 216 219 222 227 232 239
152 153 155 155 153 154 150 145 144 138 139 142 138 138 142 149 153 150 159 172 180 195 209 216 217 211 213 217 217 216 217 225 244 269 271 271 276 276 273 277 279 281 287 290 287 285 281 275 271 267 264 262 261 258 253 248 246 245 245 244 242 240 237 235 236 235 236 237 237 238 239 235 228 223 223 224 227 228 219 214 220 225 226 228 235
159 158 159 156 153 152 146 143 142 137 139 138 134 141 148 150 149 143 148 154 165 187 197 208 214 204 191 176 187 194 200 221 259 291 284 275 278 280 279 281 283 284 288 289 285 279 276 276 275 274 271 268 266 263 257 252 248 247 247 246 244 241 238 236 237 235 233 234 235 234 229 226 225 223 223 222 224 227 220 215 221 229 228 227 232
160 158 156 155 154 151 147 145 147 147 147 146 143 149 156 153 144 137 129 124 142 189 225 282 334 39 37 37 6 16 83 261 287 298 297 292 289 289 290 288 284 287 287 283 282 279 278 281 282 281 280 275 273 271 266 257 250 248 248 248 246 243 240 239 237 234 233 234 238 238 235 235 231 220 213 215 219 226 226 220 222 228 229 229 230
153 153 152 154 154 152 151 152 157 159 157 157 157 158 161 158 151 154 156 142 116 289 286 299 313 314 307 306 308 324 335 309 286 286 290 292 293 294 297 298 295 291 289 288 287 284 280 281 283 285 283 278 274 272 270 264 257 253 251 250 249 245 241 239 238 236 233 233 237 240 237 237 236 224 213 209 208 216 223 223 224 227 227 228 229
142 146 150 154 155 154 157 159 163 167 165 163 165 167 171 172 171 172 174 176 189 220 239 258 268 267 267 272 283 297 305 296 283 279 277 277 283 288 297 306 307 297 293 293 289 284 279 276 277 279 278 274 272 270 269 268 263 257 254 251 250 248 242 238 238 238 234 231 233 237 235 232 234 230 220 212 211 214 216 218 223 225 227 228 228
141 146 149 153 157 158 162 162 163 172 175 170 173 182 188 190 186 180 185 199 217 238 248 259 270 280 289 292 294 300 301 299 297 294 287 280 283 288 296 307 310 305 303 301 295 290 285 278 275 275 273 269 268 268 267 266 263 258 254 252 251 249 245 239 238 239 236 233 233 235 233 228 226 224 216 210 214 220 217 218 221 221 223 226 225
149 147 148 151 155 159 165 165 166 174 181 179 179 181 181 178 149 123 278 252 235 262 274 280 290 304 317 325 329 336 336 333 331 328 323 315 311 311 312 316 314 310 310 309 306 302 296 289 283 278 271 266 265 264 265 265 263 259 256 255 254 251 246 240 238 239 238 235 234 235 232 224 215 210 209 205 207 219 225 223 222 221 223 224 223
151 148 147 147 149 154 162 164 164 169 178 178 158 132 122 110 89 113 223 247 243 262 276 285 303 314 329 351 358 358 354 342 337 338 338 334 330 328 325 321 317 312 312 312 311 308 305 300 294 287 279 270 263 259 262 264 262 261 258 257 257 253 246 240 238 240 238 233 232 233 232 226 219 215 212 206 205 216 225 224 222 224 228 228 225
151 152 147 145 147 150 157 160 160 168 179 175 170 153 138 141 149 164 199 239 255 260 273 280 284 286 292 314 318 318 321 317 323 330 332 329 324 321 318 315 315 315 316 316 315 313 310 305 299 296 289 281 273 265 264 264 262 262 262 262 260 255 248 241 239 240 237 233 230 231 232 229 224 221 217 214 216 223 229 228 224 224 226 228 225
142 144 141 140 144 147 152 156 159 169 176 172 181 185 168 169 182 182 197 238 258 260 266 269 271 275 274 274 279 283 285 291 308 321 325 325 320 316 316 320 322 322 323 322 320 316 311 306 301 297 294 291 286 278 272 273 272 268 267 267 264 260 254 244 238 237 235 232 230 229 229 224 219 218 220 223 224 228 232 230 227 226 225 224 222
132 136 137 134 135 140 145 151 156 164 175 185 199 203 195 194 201 208 219 239 257 267 272 271 277 284 277 275 281 283 283 289 304 315 319 320 319 319 323 328 328 326 326 325 324 319 313 306 299 294 295 294 288 280 276 277 276 270 267 266 266 264 259 249 240 235 230 229 227 225 225 222 219 218 220 221 222 226 229 228 227 225 222 225 223
131 134 134 132 131 136 141 148 158 175 196 209 211 209 207 209 211 217 236 253 260 277 287 286 290 294 288 289 289 286 288 296 305 311 314 316 319 324 330 332 331 330 331 330 329 325 318 310 301 296 294 289 282 278 281 283 279 272 268 268 268 262 258 256 249 236 229 228 224 221 223 223 220 219 219 220 221 223 227 229 229 221 213 217 221
130 133 133 132 133 137 139 143 152 167 188 198 200 205 208 211 216 223 245 275 287 296 302 302 302 302 302 304 301 298 299 299 304 311 313 316 321 328 333 334 335 336 336 335 333 329 325 321 311 303 298 288 281 281 287 291 287 277 272 272 270 259 253 255 250 238 231 229 225 222 222 220 217 216 217 218 219 221 224 226 226 223 214 211 212
130 131 132 132 134 137 138 141 147 148 154 174 190 206 212 211 216 237 307 314 311 313 321 329 327 318 313 318 324 330 330 324 323 325 324 324 327 331 336 338 338 339 339 338 336 334 335 334 326 317 308 296 290 289 291 292 286 278 272 270 268 262 255 251 247 243 234 227 225 223 221 219 217 217 215 213 215 220 224 223 222 224 222 216 210
125 124 125 126 126 129 131 133 136 132 130 147 178 211 232 211 136 58 34 3 343 347 355 350 341 330 329 340 351 355 356 355 349 343 339 336 335 338 341 340 341 343 343 342 340 338 340 340 335 331 322 308 298 294 293 290 285 282 277 272 268 263 255 249 245 244 237 226 222 219 217 218 217 215 214 214 218 221 222 222 222 223 224 222 216
117 118 120 120 119 117 117 122 129 135 144 157 182 223 53 73 75 59 37 11 2 10 8 349 338 340 351 5 12 13 15 14 8 360 351 345 344 345 343 342 346 349 348 347 347 343 342 341 338 336 333 321 307 299 296 290 288 293 288 280 273 265 260 253 244 240 235 225 218 211 209 213 215 212 212 216 221 222 221 219 219 219 219 219 216
117 121 121 123 123 114 114 131 140 144 156 158 111 80 85 83 71 47 28 17 12 12 358 343 349 3 14 25 29 30 31 24 17 9 358 351 349 348 347 348 351 352 352 353 354 353 349 347 348 347 340 329 316 313 311 296 293 303 296 286 279 273 269 253 236 229 222 210 210 210 208 213 214 211 214 219 222 223 220 217 216 212 214 217 212
125 125 122 125 131 129 134 144 134 111 96 88 80 83 82 75 66 49 33 27 20 11 4 9 20 26 32 41 40 33 29 22 15 9 0 354 354 351 350 353 353 353 355 356 358 359 358 358 4 5 357 351 342 342 347 333 316 313 301 296 294 292 296 230 202 199 183 179 198 207 211 221 221 216 220 224 226 224 216 213 217 214 211 214 207
128 125 124 126 133 139 141 128 115 110 101 85 85 93 87 76 70 53 34 34 29 21 24 32 34 36 42 48 41 26 20 15 10 6 360 355 356 354 354 356 357 357 359 360 1 3 3 5 12 15 13 16 18 15 18 22 12 352 332 318 332 359 42 80 146 179 176 181 200 202 211 235 238 232 232 232 231 229 219 215 221 219 211 208 203
127 126 129 134 137 135 128 122 121 118 104 83 80 88 87 77 63 46 45 46 39 31 33 37 33 30 35 43 39 28 20 13 8 5 0 358 355 351 354 1 4 4 3 3 5 6 6 6 7 15 26 30 29 28 28 28 24 18 19 10 8 30 70 121 144 170 183 193 207 214 227 241 242 238 239 237 230 225 223 223 223 215 207 207 205
124 129 135 138 138 132 126 125 123 111 96 84 77 76 76 67 54 54 58 53 43 34 33 35 29 20 22 31 36 33 23 13 9 7 7 6 359 350 354 1 4 8 8 5 9 9 6 5 4 11 26 32 30 31 26 21 24 21 16 1 336 323 282 252 200 189 213 217 209 222 240 247 245 242 242 238 229 221 218 222 223 213 206 209 208
130 140 142 137 135 134 127 118 106 94 88 85 81 76 72 65 60 62 64 59 50 37 28 27 21 17 23 33 39 37 30 22 18 18 17 13 4 358 359 358 2 16 16 8 11 14 11 11 9 10 23 30 28 29 26 24 24 15 11 9 343 339 326 295 266 225 239 238 223 225 241 248 245 241 240 234 227 222 212 213 220 216 212 215 211
137 139 136 131 130 130 123 112 101 92 90 88 83 77 72 69 68 68 68 67 55 28 16 16 19 28 33 35 37 36 34 30 25 25 23 15 9 6 4 360 3 22 23 10 8 11 13 14 11 14 25 29 28 30 31 31 26 19 27 36 16 20 28 348 308 284 271 268 245 230 237 243 243 237 229 219 218 218 210 212 220 215 212 215 206
130 130 131 132 128 124 120 113 100 91 89 86 81 77 75 72 70 67 64 58 34 13 22 33 37 42 40 36 36 35 36 36 33 31 27 20 17 16 15 13 13 20 25 20 13 9 12 12 10 16 21 21 32 43 40 38 38 37 45 53 44 42 43 34 33 22 285 290 278 246 235 236 240 231 212 206 213 220 214 215 221 217 212 211 205
129 132 134 133 128 122 117 110 101 96 90 81 78 78 75 69 65 59 52 42 22 20 39 47 45 46 44 41 39 39 43 45 42 39 34 28 27 29 30 28 26 27 29 32 27 17 14 15 16 19 17 21 46 58 51 43 43 46 49 48 49 48 41 35 39 34 353 304 271 260 249 237 230 229 224 216 219 226 221 217 222 222 214 211 210
138 139 136 131 127 125 119 110 106 103 92 80 80 81 78 75 68 55 49 36 19 26 47 50 47 51 52 48 47 49 51 50 48 46 43 41 40 40 41 42 42 43 39 37 38 30 23 25 27 27 25 30 49 60 58 51 46 41 40 41 48 50 42 35 28 18 8 345 317 299 277 263 254 255 252 239 228 227 222 216 218 218 213 212 212
142 136 130 124 118 117 115 111 108 103 93 86 88 89 87 85 73 54 45 30 15 30 54 54 50 58 62 57 55 56 56 54 54 53 52 52 51 49 51 54 55 55 49 43 43 41 38 37 37 40 44 46 50 53 54 54 48 42 43 48 46 41 36 32 28 19 13 357 341 337 307 282 278 266 253 239 226 219 214 213 218 219 217 216 214
141 136 131 124 118 116 115 112 106 101 95 90 89 91 90 83 70 52 43 28 18 44 64 59 54 61 66 62 59 59 60 60 60 59 59 58 57 56 58 60 60 59 58 56 53 52 50 47 47 50 54 56 55 50 48 50 47 38 37 39 37 35 33 32 29 21 16 9 356 354 345 287 254 245 236 223 213 209 210 211 212 217 218 217 218
144 141 133 125 124 122 117 110 102 98 96 88 87 90 86 77 66 51 40 29 36 64 70 65 61 62 65 63 61 64 64 64 65 64 63 61 58 57 58 59 59 60 61 61 58 55 51 48 47 50 55 58 58 54 51 51 49 40 35 35 36 37 36 34 29 17 10 7 6 17 14 307 245 234 220 206 197 194 201 203 197 203 211 214 220
143 138 125 121 124 118 108 106 101 96 92 86 89 92 83 74 65 50 36 35 59 74 73 70 68 66 67 66 65 69 70 69 69 68 67 65 61 58 57 56 57 56 56 57 54 50 47 43 43 48 55 57 57 55 51 50 49 45 41 41 44 43 41 39 34 24 15 12 16 26 23 349 221 211 217 208 192 180 194 202 200 202 207 209 215
142 139 126 121 123 115 107 106 100 97 95 91 95 97 86 76 63 44 38 52 71 79 79 76 73 70 71 70 70 73 75 75 73 71 71 70 66 62 59 57 56 53 52 52 50 48 48 47 47 51 53 52 49 46 42 41 43 44 41 41 44 44 41 42 44 41 34 25 15 17 17 17 87 129 183 202 194 188 202 206 198 194 196 198 202
140 145 141 128 121 117 114 109 102 102 102 98 100 99 87 75 58 50 61 71 76 81 83 82 79 75 73 72 72 75 78 80 79 76 74 72 69 65 61 56 54 52 50 51 52 52 53 53 53 53 52 49 46 42 38 36 38 40 41 39 39 39 39 42 49 53 46 33 18 10 7 4 41 94 146 184 187 193 206 194 166 163 176 186 189
136 147 153 142 125 120 118 109 106 111 110 104 104 102 90 75 63 66 76 78 78 80 82 83 83 80 77 74 72 72 73 75 76 76 76 74 71 68 64 59 55 53 51 50 50 52 54 55 55 53 50 49 49 47 44 44 43 41 42 43 40 38 38 39 47 51 50 48 47 51 57 63 92 116 136 156 166 181 196 181 150 147 162 171 169
134 141 148 143 134 128 119 109 113 116 112 108 108 105 92 78 73 78 82 82 81 81 81 83 84 82 80 77 74 72 71 69 68 68 68 68 67 66 64 61 58 56 54 51 50 51 52 53 53 51 49 50 50 48 46 48 49 46 48 53 55 57 58 59 64 69 66 60 53 53 62 75 87 103 132 154 159 162 161 152 144 142 141 136 131
135 135 136 138 141 137 121 115 118 114 107 109 112 107 96 84 82 85 85 85 86 85 85 86 85 83 81 78 75 74 73 71 68 67 66 64 63 62 61 60 59 58 57 54 53 54 53 53 53 52 51 51 52 50 46 47 49 48 50 56 59 63 68 71 76 82 81 73 63 52 47 54 68 80 98 119 126 132 135 130 125 125 124 115 107
135 132 130 132 140 140 129 124 120 109 103 110 113 106 98 90 88 89 86 86 86 85 85 86 84 82 79 75 73 72 71 71 71 70 69 66 64 62 61 59 57 56 57 55 52 52 53 54 54 54 54 53 54 54 51 50 50 50 50 55 58 59 59 61 66 74 79 81 81 74 57 44 51 66 83 91 79 71 90 98 92 99 115 121 114
132 129 125 125 131 136 134 129 118 106 104 111 111 103 96 92 91 88 84 84 85 84 84 84 82 81 77 74 73 71 69 70 70 71 72 70 68 66 63 61 59 56 55 54 52 50 51 52 52 52 53 53 51 51 50 49 48 48 46 46 50 51 46 44 50 60 68 76 80 78 72 63 51 42 43 52 56 52 55 67 76 92 108 118 118
126 123 120 118 120 124 128 125 118 111 111 114 109 101 94 91 90 86 84 86 89 89 88 86 82 80 76 74 73 70 69 69 69 70 72 72 71 69 65 64 62 60 58 58 57 55 56 57 55 52 51 50 47 45 43 41 39 40 40 39 43 46 41 35 37 45 51 60 65 68 68 62 57 55 50 51 65 69 58 63 78 95 108 113 119
127 125 123 122 121 121 123 125 122 118 119 119 113 106 102 99 93 88 87 88 89 91 91 89 87 83 80 77 74 72 72 72 70 70 70 70 71 70 69 67 66 64 63 62 61 60 60 61 59 55 51 49 46 43 42 41 40 38 37 37 40 43 40 35 38 43 45 47 49 53 56 54 54 65 72 71 76 65 42 52 70 89 111 127 174
129 127 127 127 125 122 123 127 127 125 124 124 121 116 112 106 99 96 95 91 90 90 89 88 87 85 83 80 77 75 75 74 73 73 72 71 69 68 68 67 66 65 65 63 61 60 59 58 57 56 54 51 50 48 47 46 46 45 44 42 41 41 39 34 36 41 43 43 43 43 45 46 47 54 66 78 90 87 68 70 83 97 114 138 174
127 126 127 128 126 122 121 125 128 128 125 123 122 118 113 107 105 108 106 97 93 93 91 88 85 83 82 81 78 76 75 74 73 73 72 72 70 68 67 65 62 62 62 61 60 58 57 56 54 53 53 52 51 52 51 50 50 49 48 47 45 43 41 39 39 42 41 38 37 36 36 36 38 42 46 53 65 75 83 98 117 140 147 147 152
129 127 127 125 121 118 117 118 119 119 116 113 113 112 108 105 106 108 106 100 96 93 90 88 85 82 81 78 76 74 72 72 72 71 70 69 68 68 67 64 62 61 59 60 59 57 57 58 56 54 53 52 51 51 51 51 50 49 49 49 47 46 45 43 44 46 45 41 37 34 30 28 29 33 35 36 41 48 57 73 93 114 132 132 123
130 130 129 126 122 119 118 116 115 114 111 109 107 106 106 108 108 106 102 99 97 94 90 86 83 78 74 72 70 68 67 69 70 69 68 65 63 63 64 63 61 60 58 58 58 57 57 58 59 58 56 55 54 52 51 50 48 48 48 47 47 47 47 46 46 46 46 45 44 42 40 39 37 38 38 40 43 43 41 44 52 61 82 108 119
132 132 131 127 122 120 119 117 116 116 116 115 112 109 107 108 109 108 106 102 97 91 87 83 80 75 70 68 66 64 63 64 66 66 64 61 58 58 59 59 59 58 58 58 58 57 55 55 57 58 56 55 55 54 53 52 50 48 48 47 47 47 47 46 46 44 42 42 44 45 47 47 46 46 46 46 47 46 43 42 40 37 34 34 37
132 132 131 127 125 123 121 118 118 118 118 118 117 118 118 114 110 108 107 103 99 94 89 84 79 76 72 70 68 65 63 61 62 63 62 58 54 53 53 54 55 55 56 57 57 57 55 53 55 56 55 56 56 55 54 53 52 52 53 52 51 49 47 47 48 46 44 41 41 44 47 47 45 42 41 41 41 42 41 40 36 32 30 29 28
134 135 133 130 127 125 122 119 118 115 110 106 103 106 114 118 118 119 117 112 108 105 102 96 88 81 77 74 71 68 65 62 61 61 60 58 55 52 51 52 53 55 57 57 57 57 54 52 53 55 57 58 57 55 56 56 55 55 55 55 54 52 49 48 48 47 45 42 41 42 43 43 42 40 38 38 37 36 35 34 32 29 27 26 25
137 136 134 131 128 126 124 123 122 120 116 111 105 102 104 107 111 118 124 123 116 108 104 100 93 87 83 79 76 72 68 65 61 59 59 59 58 56 52 50 51 54 57 58 58 57 56 54 55 58 61 60 56 53 52 54 55 53 51 50 50 47 44 44 43 39 37 37 38 37 37 38 38 37 38 40 39 37 36 35 36 34 33 33 32
139 138 135 133 130 127 125 125 127 128 127 125 123 121 118 116 113 111 113 116 115 107 102 100 96 92 88 83 79 76 73 69 65 62 60 59 57 58 56 52 49 51 55 58 58 57 57 57 58 62 65 63 57 53 52 52 52 50 46 43 41 37 35 34 32 28 31 38 40 37 36 37 35 32 32 32 31 32 35 37 37 37 35 35 36